Weather History for KRNP - May, 2013

Change the Weather History Date:

Thursday, May 30, 2013

  Actual Average (KFNT) Record (KFNT)
Temperature  
Mean Temperature 78 °F 62 °F  
Max Temperature 88 °F 73 °F 92 °F (1934)
Min Temperature 68 °F 50 °F 33 °F (1961)
Degree Days  
Heating Degree Days 0 5  
Month to date heating degree days 274  
Since 1 July heating degree days 6881  
Cooling Degree Days 13 2  
Month to date cooling degree days 26  
Year to date cooling degree days 30  
Growing Degree Days 28 (Base 50)    
Moisture  
Dew Point 67 °F    
Average Humidity 71    
Maximum Humidity 92    
Minimum Humidity 44    
Precipitation  
Precipitation 0.00 in 0.10 in 0.92 in (1989)
Month to date precipitation 2.98  
Year to date precipitation 10.89  
Snow  
Snow 0.00 in 0.00 in 0.00 in ()
Month to date snowfall 0.0  
Since 1 July snowfall 47.4  
Snow Depth -    
Sea Level Pressure  
Sea Level Pressure 29.99 in    
Wind  
Wind Speed 6 mph (South)    
Max Wind Speed 18 mph    
Max Gust Speed 28 mph    
Visibility 10 miles    
Events Rain    
T = Trace of Precipitation, MM = Missing Value Source: NWS Daily Summary

Daily Weather History Graph

Daily Weather History Graph

Search for Another Location

Airport or City:

Trip Planner

Search our weather history database for the weather conditions in past years. The results will help you decide how hot, cold, wet, or windy it might be!

Date:

Astronomy

May. 30, 2013 Rise Set
Actual Time 6:01 AM EDT 9:07 PM EDT
Civil Twilight 5:26 AM EDT 9:41 PM EDT
Nautical Twilight 4:42 AM EDT 10:26 PM EDT
Astronomical Twilight 3:50 AM EDT 11:18 PM EDT
Moon 1:02 AM EDT (5/30) 12:14 PM EDT (5/30)
Length of Visible Light 16h 15m
Length of Day
15h 06m
Waning Gibbous, 62% of the Moon is Illuminated
May 30
Waning Gibbous
May 31
Last Quarter
Jun 8
New
Jun 16
First Quarter
Jun 23
Full

Hourly Weather History & Observations

Time (EDT) Temp. Heat Index Dew Point Humidity Pressure Visibility Wind Dir Wind Speed Gust Speed Precip Events Conditions
12:15 AM 70.7 °F - 67.3 °F 89% 29.98 in 10.0 mi SSE 4.6 mph - N/A   Clear
12:35 AM 70.9 °F - 67.1 °F 88% 29.98 in 10.0 mi SSE 3.5 mph - N/A   Clear
12:55 AM 70.9 °F - 67.1 °F 88% 29.99 in 10.0 mi SSE 3.5 mph - N/A   Clear
1:15 AM 70.9 °F - 67.1 °F 88% 29.99 in 10.0 mi South 4.6 mph - N/A   Clear
1:34 AM 70.9 °F - 67.1 °F 88% 30.00 in 10.0 mi South 3.5 mph - N/A   Clear
1:55 AM 70.9 °F - 66.6 °F 86% 30.00 in 10.0 mi Calm Calm - N/A   Clear
2:15 AM 71.1 °F - 66.2 °F 85% 30.00 in 10.0 mi South 3.5 mph - N/A   Clear
2:35 AM 70.9 °F - 65.7 °F 83% 30.01 in 10.0 mi South 3.5 mph - N/A   Clear
2:55 AM 70.3 °F - 65.5 °F 85% 30.01 in 10.0 mi Calm Calm - N/A   Clear
3:15 AM 69.8 °F - 65.3 °F 86% 30.01 in 10.0 mi South 3.5 mph - N/A   Clear
3:35 AM 69.4 °F - 65.3 °F 87% 30.01 in 10.0 mi Calm Calm - N/A   Clear
3:55 AM 68.9 °F - 64.6 °F 86% 30.01 in 10.0 mi South 3.5 mph - N/A   Clear
4:15 AM 69.1 °F - 64.4 °F 85% 30.01 in 10.0 mi South 4.6 mph - N/A   Clear
4:35 AM 69.3 °F - 64.0 °F 83% 30.00 in 10.0 mi South 4.6 mph - N/A   Clear
4:55 AM 69.1 °F - 63.7 °F 83% 30.00 in 10.0 mi South 4.6 mph - N/A   Clear
5:15 AM 69.1 °F - 63.5 °F 82% 30.00 in 10.0 mi SSE 4.6 mph - N/A   Clear
5:35 AM 68.9 °F - 63.1 °F 82% 30.01 in 10.0 mi South 5.8 mph - N/A   Clear
5:55 AM 69.6 °F - 63.5 °F 81% 30.01 in 10.0 mi South 6.9 mph - N/A   Clear
6:14 AM 69.8 °F - 63.5 °F 80% 30.01 in 10.0 mi South 5.8 mph - N/A   Clear
6:35 AM 70.5 °F - 63.7 °F 79% 30.01 in 10.0 mi South 6.9 mph - N/A   Clear
6:55 AM 71.1 °F - 63.9 °F 78% 30.02 in 10.0 mi South 6.9 mph - N/A   Clear
7:15 AM 71.4 °F - 64.0 °F 77% 30.03 in 10.0 mi SSW 5.8 mph - N/A   Clear
7:35 AM 71.2 °F - 64.4 °F 79% 30.03 in 10.0 mi SSW 6.9 mph - N/A   Clear
7:55 AM 73.4 °F - 65.1 °F 75% 30.04 in 10.0 mi South 8.1 mph - N/A   Clear
8:15 AM 74.5 °F - 65.5 °F 73% 30.03 in 10.0 mi South 8.1 mph - N/A   Clear
8:34 AM 75.0 °F - 66.2 °F 74% 30.03 in 10.0 mi South 8.1 mph - N/A   Clear
8:55 AM 77.0 °F - 66.7 °F 70% 30.03 in 10.0 mi SSW 8.1 mph - N/A   Clear
9:15 AM 77.9 °F - 67.3 °F 70% 30.04 in 10.0 mi South 9.2 mph - N/A   Clear
9:35 AM 79.0 °F - 67.6 °F 68% 30.04 in 10.0 mi South 9.2 mph 17.3 mph N/A   Clear
9:55 AM 79.7 °F - 67.3 °F 66% 30.03 in 10.0 mi SSW 9.2 mph 16.1 mph N/A   Clear
10:15 AM 80.8 °F 83.5 °F 67.8 °F 65% 30.03 in 10.0 mi SSW 8.1 mph - N/A   Clear
10:35 AM 81.5 °F 83.9 °F 67.1 °F 61% 30.02 in 10.0 mi SSW 10.4 mph - N/A   Clear
10:55 AM 82.4 °F 85.2 °F 67.8 °F 61% 30.02 in 10.0 mi South 15.0 mph 19.6 mph N/A   Clear
11:15 AM 82.9 °F 86.0 °F 68.2 °F 61% 30.02 in 10.0 mi SSW 8.1 mph 20.7 mph N/A   Clear
11:35 AM 83.3 °F 86.6 °F 68.4 °F 61% 30.02 in 10.0 mi SSW 9.2 mph - N/A   Clear
11:55 AM 84.4 °F 87.6 °F 68.2 °F 58% 30.02 in 10.0 mi South 10.4 mph 19.6 mph N/A   Scattered Clouds
12:15 PM 85.1 °F 88.5 °F 68.5 °F 57% 30.02 in 10.0 mi South 10.4 mph 16.1 mph N/A   Scattered Clouds
12:35 PM 85.3 °F 89.4 °F 69.4 °F 59% 30.02 in 10.0 mi South 11.5 mph - N/A   Mostly Cloudy
12:55 PM 83.3 °F 86.6 °F 68.7 °F 61% 30.02 in 10.0 mi South 10.4 mph - N/A   Mostly Cloudy
1:15 PM 86.2 °F 90.0 °F 68.9 °F 56% 30.01 in 10.0 mi South 12.7 mph 19.6 mph N/A   Mostly Cloudy
1:34 PM 86.2 °F 89.7 °F 68.2 °F 55% 30.00 in 10.0 mi SSW 10.4 mph 18.4 mph N/A   Scattered Clouds
1:55 PM 86.2 °F 90.0 °F 68.7 °F 56% 29.99 in 10.0 mi SSW 12.7 mph 17.3 mph N/A   Scattered Clouds
2:15 PM 86.4 °F 90.0 °F 68.4 °F 55% 29.99 in 10.0 mi South 16.1 mph 23.0 mph N/A   Scattered Clouds
2:35 PM 87.3 °F 90.9 °F 68.4 °F 53% 29.98 in 10.0 mi SSW 15.0 mph 21.9 mph N/A   Scattered Clouds
2:55 PM 87.4 °F 91.9 °F 69.4 °F 55% 29.97 in 10.0 mi SSW 10.4 mph - N/A   Scattered Clouds
3:15 PM 88.2 °F 90.6 °F 66.4 °F 48% 29.97 in 10.0 mi SW 13.8 mph 21.9 mph N/A   Clear
3:35 PM 87.3 °F 89.2 °F 65.7 °F 48% 29.97 in 10.0 mi SW 10.4 mph 23.0 mph N/A   Scattered Clouds
3:55 PM 88.2 °F 90.3 °F 65.3 °F 47% 29.97 in 10.0 mi SSW 16.1 mph 20.7 mph N/A   Scattered Clouds
4:15 PM 88.2 °F 89.3 °F 64.0 °F 44% 29.96 in 10.0 mi SSW 18.4 mph 27.6 mph N/A   Scattered Clouds
4:35 PM 87.8 °F 89.4 °F 64.8 °F 46% 29.95 in 10.0 mi South 15.0 mph 20.7 mph N/A   Scattered Clouds
4:55 PM 85.5 °F 87.6 °F 66.2 °F 52% 29.96 in 10.0 mi South 10.4 mph 20.7 mph N/A   Scattered Clouds
5:15 PM 86.4 °F 89.4 °F 67.5 °F 53% 29.94 in 10.0 mi South 8.1 mph - N/A   Mostly Cloudy
5:35 PM 85.3 °F 87.9 °F 67.1 °F 54% 29.94 in 10.0 mi SSE 11.5 mph 19.6 mph N/A   Scattered Clouds
5:55 PM 83.5 °F 86.7 °F 68.2 °F 60% 29.94 in 10.0 mi SSE 8.1 mph - N/A   Scattered Clouds
6:15 PM 85.1 °F 89.1 °F 69.1 °F 59% 29.94 in 10.0 mi SSE 8.1 mph - N/A   Scattered Clouds
6:35 PM 84.6 °F 88.2 °F 68.7 °F 59% 29.94 in 10.0 mi SSE 8.1 mph - N/A   Mostly Cloudy
6:54 PM 84.4 °F 86.6 °F 66.0 °F 54% 29.96 in 10.0 mi SSE 8.1 mph - N/A   Mostly Cloudy
7:15 PM 84.4 °F 85.9 °F 64.2 °F 51% 29.94 in 10.0 mi South 9.2 mph 17.3 mph N/A   Mostly Cloudy
7:35 PM 83.8 °F 85.3 °F 64.6 °F 52% 29.95 in 10.0 mi South 8.1 mph - N/A   Scattered Clouds
7:55 PM 83.3 °F 85.1 °F 65.3 °F 54% 29.94 in 10.0 mi South 9.2 mph - N/A   Clear
8:15 PM 82.8 °F 84.7 °F 65.8 °F 56% 29.95 in 10.0 mi South 4.6 mph - N/A   Scattered Clouds
8:35 PM 81.9 °F 84.2 °F 66.7 °F 60% 29.96 in 10.0 mi SSE 4.6 mph - N/A   Overcast
8:55 PM 71.6 °F - 69.1 °F 92% 29.98 in 10.0 mi ESE 5.8 mph 17.3 mph N/A Rain Light Rain
9:15 PM 71.6 °F - 68.9 °F 91% 29.98 in 10.0 mi SSE 5.8 mph - N/A   Scattered Clouds
9:35 PM 71.2 °F - 68.7 °F 92% 29.98 in 10.0 mi SE 4.6 mph - N/A   Scattered Clouds
9:55 PM 72.9 °F - 69.8 °F 90% 29.98 in 10.0 mi SE 9.2 mph - N/A   Clear
10:15 PM 73.4 °F - 70.7 °F 91% 29.97 in 10.0 mi SE 8.1 mph - N/A   Clear
10:35 PM 73.4 °F - 70.7 °F 91% 29.97 in 10.0 mi SE 8.1 mph - N/A   Clear
10:55 PM 73.0 °F - 70.7 °F 92% 29.98 in 10.0 mi SSE 8.1 mph - N/A   Clear
11:15 PM 73.0 °F - 70.3 °F 91% 29.98 in 10.0 mi SSE 6.9 mph - N/A   Clear
11:35 PM 73.4 °F - 70.3 °F 90% 29.98 in 10.0 mi SSE 5.8 mph - N/A   Clear
11:55 PM 73.6 °F - 70.0 °F 88% 29.99 in 10.0 mi SSE 6.9 mph - N/A   Clear